Location: Kitt Peak
(31.9633°N, 111.6000°W)
Time: 22:36:50
(UTC-07:00)

Amateur Radio Satellites - All Passes

Search period start: 01 July 2016 22:06
Search period end: 02 July 2016 22:06
Location: Kitt Peak, 31.9633°N, 111.6000°W

Satellite Date Start Highest point End Downlink Frequencies (MHz)
Time Altitude Azimuth
ESTCUBE 1 01 Jul 22:11:00 22:13:53 17° 69° (ENE) 22:16:47 437.505/2401.250
ZACube-1 01 Jul 22:17:06 22:18:54 12° 267° (W) 22:20:42 437.345
Oscar 11 01 Jul 22:20:20 22:21:31 11° 267° (W) 22:22:41 145.826/435.025
50 SAT 01 Jul 22:31:07 22:33:15 15° 70° (ENE) 22:35:23 437.505
TIGRISAT 01 Jul 22:32:34 22:37:12 57° 100° (E) 22:41:49 435.000
RS-15 01 Jul 22:33:45 22:43:18 28° 258° (WSW) 22:52:45 29.354- 29.394
CUBEBUG 1 01 Jul 22:36:19 22:39:33 21° 70° (ENE) 22:42:46 437.445
UNISAT 6 01 Jul 22:38:56 22:43:38 73° 102° (ESE) 22:48:20 437.425
SO-50 01 Jul 22:44:10 22:46:10 13° 48° (NE) 22:48:09 436.795
VELOX 1 01 Jul 22:53:39 22:57:30 30° 72° (ENE) 23:01:22 145.980
Cosmos 2491 01 Jul 22:55:05 23:01:49 25° 84° (E) 23:08:30 435.465 / 435.565
HUMSAT D 01 Jul 22:55:58 22:59:02 20° 265° (W) 23:02:09 437.325/437.525
SPROUT 01 Jul 23:09:36 23:12:29 18° 70° (ENE) 23:15:23 437.525
UKube-1 01 Jul 23:14:23 23:18:12 32° 72° (ENE) 23:22:01 .
ANTELSAT 01 Jul 23:18:53 23:23:15 39° 287° (WNW) 23:27:36 437.575/2403.000
AISAT 01 Jul 23:34:21 23:38:45 79° 258° (WSW) 23:43:09 437.250
NANOSAT C BR1 01 Jul 23:39:19 23:43:26 48° 100° (E) 23:47:33 145.865
DX 1 01 Jul 23:40:53 23:45:14 89° 60° (ENE) 23:49:35 434.975-435.025
QB50P1 01 Jul 23:44:28 23:48:42 60° 101° (E) 23:52:54 145.935-145.965
YUBILEINY 01 Jul 23:44:29 23:53:23 90° 88° (E) 00:02:14 435.215
ESTCUBE 1 01 Jul 23:46:12 23:50:22 36° 262° (W) 23:54:32 437.505/2401.250
POPSAT HIP 1 01 Jul 23:48:02 23:52:17 66° 101° (E) 23:56:32 437.405
JAS-2 01 Jul 23:50:26 23:52:41 13° 92° (E) 23:54:53 435.910
DUCHIFAT 1 01 Jul 23:57:54 00:02:09 79° 102° (ESE) 00:06:25 145.980
BEESAT 3 02 Jul 00:00:29 00:02:23 13° 109° (ESE) 00:04:19 437.485
QB50P2 02 Jul 00:01:21 00:05:38 77° 283° (WNW) 00:09:54 145.880/145.840
50 SAT 02 Jul 00:03:32 00:06:40 26° 263° (W) 00:09:49 437.505
POLYITAN 1 02 Jul 00:03:59 00:08:16 75° 285° (WNW) 00:12:33 437.675
TIGRISAT 02 Jul 00:11:41 00:13:20 12° 294° (WNW) 00:14:59 435.000
CUBEBUG 1 02 Jul 00:11:59 00:15:38 26° 263° (W) 00:19:17 437.445
TISAT 1 02 Jul 00:15:17 00:18:40 25° 72° (ENE) 00:22:04 437.305
PCSat 02 Jul 00:17:03 00:22:02 39° 109° (ESE) 00:27:03 145.827
SO-50 02 Jul 00:22:32 00:27:05 63° 244° (WSW) 00:31:29 436.795
Cosmos 2504 02 Jul 00:24:34 00:33:07 53° 79° (E) 00:41:09 435.465 / 435.565
O/OREOS (USA 219) 02 Jul 00:29:57 00:32:17 14° 99° (E) 00:34:36 437.305
VELOX 1 02 Jul 00:30:57 00:33:57 18° 265° (W) 00:36:58 145.980
Oscar 19 02 Jul 00:36:14 00:38:03 12° 93° (E) 00:39:52 437.125/150
BUGSAT 1 02 Jul 00:37:54 00:42:02 79° 283° (WNW) 00:46:13 437.445
SPROUT 02 Jul 00:44:32 00:48:11 28° 263° (W) 00:51:52 437.525
BEESAT 2 02 Jul 00:44:35 00:47:47 24° 111° (ESE) 00:51:01 435.950
Cosmos 2491 02 Jul 00:49:26 00:57:59 56° 280° (W) 01:06:33 435.465 / 435.565
UKube-1 02 Jul 00:51:31 00:54:15 16° 265° (W) 00:57:00 .
SWISSCUBE 02 Jul 00:56:14 00:59:05 16° 67° (ENE) 01:01:56 437.505
NANOSAT C BR1 02 Jul 01:17:26 01:18:42 11° 293° (WNW) 01:19:57 145.865
BEESAT 02 Jul 01:19:51 01:23:45 26° 70° (ENE) 01:27:41 436.000
Gurwin Techsat 1B 02 Jul 01:22:53 01:26:01 16° 94° (E) 01:29:09 435.225
ITUPSAT 1 02 Jul 01:23:21 01:27:23 28° 70° (ENE) 01:31:26 437.325
JAS-2 02 Jul 01:32:58 01:38:11 52° 287° (WNW) 01:43:11 435.910
BEESAT 3 02 Jul 01:36:07 01:39:42 35° 302° (WNW) 01:43:20 437.485
YUBILEINY 02 Jul 01:44:57 01:48:51 14° 281° (W) 01:52:46 435.215
TISAT 1 02 Jul 01:51:13 01:54:14 19° 264° (W) 01:57:16 437.305
PCSat 02 Jul 02:01:14 02:05:30 23° 304° (NW) 02:09:48 145.827
O/OREOS (USA 219) 02 Jul 02:07:04 02:11:16 39° 293° (WNW) 02:15:29 437.305
Oscar 19 02 Jul 02:12:37 02:17:40 60° 286° (WNW) 02:22:42 437.125/150
Cosmos 2504 02 Jul 02:18:54 02:25:52 28° 276° (W) 02:32:33 435.465 / 435.565
BEESAT 2 02 Jul 02:22:30 02:25:31 21° 305° (NW) 02:28:35 435.950
SWISSCUBE 02 Jul 02:31:56 02:36:28 43° 261° (W) 02:41:03 437.505
AO-7 02 Jul 02:33:12 02:37:01 14° 93° (E) 02:40:48 29.400- 29.500
KKS-1 02 Jul 02:43:07 02:46:23 21° 70° (ENE) 02:49:41 437.445
ITAMSAT 1 02 Jul 02:43:58 02:48:44 35° 98° (E) 02:53:26 435.822/435.867
BEESAT 02 Jul 02:57:28 03:01:24 25° 263° (W) 03:05:21 436.000
Gurwin Techsat 1B 02 Jul 03:01:03 03:06:10 49° 287° (WNW) 03:11:16 435.225
MOZHAYETS 4 02 Jul 03:01:08 03:05:11 31° 72° (ENE) 03:09:15
ITUPSAT 1 02 Jul 03:01:16 03:05:07 24° 263° (W) 03:09:00 437.325
AIST 1 02 Jul 03:02:28 03:05:58 24° 78° (ENE) 03:09:28
STARS 02 Jul 03:04:53 03:07:45 17° 69° (ENE) 03:10:38 437.465
PHONESAT 2.4 02 Jul 03:28:44 03:31:24 28° 145° (SE) 03:34:04 2401.200-2431.200
AIST 2 02 Jul 03:36:22 03:40:27 73° 298° (WNW) 03:44:34 435.215
GONETS M04 02 Jul 03:48:09 03:54:17 21° 71° (ENE) 04:00:22
HORYU 2 02 Jul 04:06:24 04:06:55 10° 93° (E) 04:07:25 437.375
KKS-1 02 Jul 04:19:01 04:22:45 27° 263° (W) 04:26:30 437.445
AO-7 02 Jul 04:22:08 04:30:34 89° 109° (ESE) 04:38:55 29.400- 29.500
ITAMSAT 1 02 Jul 04:23:56 04:27:55 23° 292° (WNW) 04:31:54 435.822/435.867
MOZHAYETS 4 02 Jul 04:39:00 04:42:19 20° 265° (W) 04:45:41
CUBESAT XI-V 02 Jul 04:39:14 04:43:37 40° 74° (ENE) 04:48:00 437.345
STARS 02 Jul 04:39:57 04:43:50 31° 262° (W) 04:47:44 437.465
AIST 1 02 Jul 04:40:22 04:43:21 19° 271° (W) 04:46:19
Cosmos 2499 02 Jul 04:49:28 04:57:14 36° 76° (ENE) 05:04:27 435.465 / 435.565
PHONESAT 2.4 02 Jul 05:05:02 05:07:56 38° 339° (NNW) 05:10:49 2401.200-2431.200
CUSAT 1 02 Jul 05:06:21 05:08:54 12° 87° (E) 05:11:20 437.405
ISS 02 Jul 05:11:36 05:12:33 11° 125° (SE) 05:13:29 145.825
Cubesat XI-IV 02 Jul 05:23:50 05:24:43 10° 92° (E) 05:25:36 437.490
HORYU 2 02 Jul 05:39:19 05:43:42 54° 285° (WNW) 05:48:05 437.375
GONETS M04 02 Jul 05:43:03 05:51:42 69° 268° (W) 06:00:23
NOAA 18 02 Jul 05:48:14 05:52:35 23° 96° (E) 05:56:54 137.9125
CUTE-I 02 Jul 05:53:47 05:58:05 24° 96° (E) 06:02:21 437.470
AO-85 02 Jul 05:54:17 05:58:37 74° 243° (WSW) 06:02:35 145.980
BRITE-PL 02 Jul 06:00:07 06:04:00 37° 99° (E) 06:08:01 437.365/2234.400
STRAND 1 02 Jul 06:01:16 06:05:00 21° 68° (ENE) 06:08:45 437.568
DANDE 02 Jul 06:02:51 06:08:43 22° 87° (E) 06:14:18 436.750
NOAA 15 02 Jul 06:07:57 06:13:00 48° 101° (E) 06:18:02 137.62
GOMX 1 02 Jul 06:13:08 06:16:34 22° 97° (E) 06:20:08 467.674
AO-7 02 Jul 06:17:19 06:22:12 17° 304° (NW) 06:27:04 29.400- 29.500
CUBESAT XI-V 02 Jul 06:18:21 06:21:06 15° 266° (W) 06:23:50 437.345
LilacSat-2 02 Jul 06:18:47 06:22:29 41° 99° (E) 06:26:10 437.200
Cosmos 2499 02 Jul 06:42:30 06:50:14 39° 273° (W) 06:57:30 435.465 / 435.565
CUSAT 1 02 Jul 06:42:38 06:50:28 86° 97° (E) 06:57:02 437.405
PHONESAT 2.4 02 Jul 06:42:56 06:45:02 17° 355° (N) 06:47:08 2401.200-2431.200
ISS 02 Jul 06:45:30 06:48:38 45° 318° (NW) 06:51:47 145.825
DOVE 4 02 Jul 06:52:17 06:56:12 28° 98° (E) 07:00:18 437.250
Cubesat XI-IV 02 Jul 06:59:49 07:05:12 72° 285° (WNW) 07:10:31 437.490
HO-68 02 Jul 07:12:39 07:17:16 18° 94° (E) 07:21:51 435.675
CINEMA 3 02 Jul 07:18:49 07:21:42 16° 95° (E) 07:24:38 145.822/145.860
CUTE 1.7 + AOD 2 02 Jul 07:22:58 07:24:43 12° 93° (E) 07:26:27 437.475
NOAA 18 02 Jul 07:28:10 07:33:14 37° 290° (WNW) 07:38:16 137.9125
PRISM 02 Jul 07:29:03 07:32:07 20° 70° (ENE) 07:35:10 437.425
CUTE-I 02 Jul 07:33:19 07:38:05 33° 290° (WNW) 07:42:50 437.470
STRAND 1 02 Jul 07:39:08 07:43:52 37° 261° (W) 07:48:38 437.568
BRITE-PL 02 Jul 07:40:13 07:42:12 13° 291° (WNW) 07:44:12 437.365/2234.400
DANDE 02 Jul 07:42:36 07:51:00 71° 278° (W) 07:58:44 436.750
NOAA 15 02 Jul 07:49:05 07:52:20 17° 294° (WNW) 07:55:34 137.62
GOMX 1 02 Jul 07:51:04 07:54:33 24° 288° (WNW) 07:58:10 467.674
LilacSat-2 02 Jul 07:55:37 07:56:21 10° 292° (WNW) 07:57:06 437.200
PHONESAT 2.4 02 Jul 08:19:53 08:22:19 21° 12° (NNE) 08:24:43 2401.200-2431.200
COMPASS 1 02 Jul 08:22:57 08:26:43 32° 98° (E) 08:30:26 437.405
CUBEBUG 2 02 Jul 08:23:50 08:27:41 25° 96° (E) 08:31:32 437.445
CUSAT 1 02 Jul 08:29:10 08:32:44 14° 287° (WNW) 08:36:05 437.405
DOVE 4 02 Jul 08:30:20 08:33:43 21° 289° (WNW) 08:37:14 437.250
RS-15 02 Jul 08:33:08 08:36:39 12° 96° (E) 08:40:13 29.354- 29.394
ZACube-1 02 Jul 08:33:21 08:35:17 12° 93° (E) 08:37:13 437.345
AUBIESAT-1 02 Jul 08:34:14 08:34:40 10° 99° (E) 08:35:07 437.475
Oscar 11 02 Jul 08:34:57 08:36:53 13° 93° (E) 08:38:48 145.826/435.025
CANX-2 02 Jul 08:37:20 08:41:34 61° 284° (WNW) 08:45:44 2200.000
FUNcube-1 02 Jul 08:47:32 08:50:36 18° 94° (E) 08:53:39 145.935
SEEDS 02 Jul 08:52:42 08:56:54 66° 283° (WNW) 09:01:03 437.485
CINEMA 3 02 Jul 08:54:28 08:58:52 41° 286° (WNW) 09:03:26 145.822/145.860
CUTE 1.7 + AOD 2 02 Jul 08:56:41 09:00:41 40° 286° (WNW) 09:04:39 437.475
HO-68 02 Jul 08:58:14 09:05:22 67° 288° (WNW) 09:12:29 435.675
UWE-3 02 Jul 09:01:48 09:06:15 44° 99° (E) 09:10:43 435.000/436.395/437.385
PRISM 02 Jul 09:03:51 09:07:14 24° 263° (W) 09:10:38 437.425
PCSat 02 Jul 09:11:37 09:13:56 13° 50° (NE) 09:16:13 145.827
M-CUBED/EXP-1 PRIME 02 Jul 09:13:56 09:17:53 42° 104° (ESE) 09:22:06 437.505
AAUSAT CUBESAT 2 02 Jul 09:19:43 09:23:48 57° 284° (WNW) 09:27:50 437.432
TIGRISAT 02 Jul 09:27:01 09:30:35 26° 71° (ENE) 09:34:14 435.000
DANDE 02 Jul 09:32:15 09:34:37 11° 292° (WNW) 09:36:58 436.750
UNISAT 6 02 Jul 09:33:17 09:37:09 33° 72° (ENE) 09:41:06 437.425
PHONESAT 2.4 02 Jul 09:56:07 09:59:11 83° 23° (NNE) 10:02:15 2401.200-2431.200
BEESAT 3 02 Jul 09:57:50 10:01:11 26° 56° (ENE) 10:04:30 437.485
COMPASS 1 02 Jul 09:59:30 10:01:57 15° 291° (WNW) 10:04:23 437.405
CUBEBUG 2 02 Jul 10:00:17 10:04:09 26° 289° (WNW) 10:08:05 437.445
AUBIESAT-1 02 Jul 10:05:09 10:09:13 54° 289° (WNW) 10:13:32 437.475
ZACube-1 02 Jul 10:07:20 10:11:44 47° 286° (WNW) 10:16:08 437.345
Oscar 11 02 Jul 10:09:03 10:13:08 41° 286° (WNW) 10:17:12 145.826/435.025
ANTELSAT 02 Jul 10:12:25 10:16:42 80° 258° (WSW) 10:21:08 437.575/2403.000
FUNcube-1 02 Jul 10:22:44 10:26:51 34° 287° (WNW) 10:30:58 145.935
NANOSAT C BR1 02 Jul 10:27:35 10:30:33 19° 70° (ENE) 10:33:30 145.865
DELFI C3 02 Jul 10:30:51 10:34:41 48° 285° (WNW) 10:38:28 145.870
QB50P1 02 Jul 10:32:43 10:36:02 23° 71° (ENE) 10:39:22 145.935-145.965
RS-15 02 Jul 10:35:40 10:46:51 75° 113° (ESE) 10:58:41 29.354- 29.394
POPSAT HIP 1 02 Jul 10:36:14 10:39:40 25° 71° (ENE) 10:43:06 437.405
UWE-3 02 Jul 10:39:44 10:42:17 15° 292° (WNW) 10:44:49 435.000/436.395/437.385
HUMSAT D 02 Jul 10:42:50 10:47:10 88° 282° (WNW) 10:51:27 437.325/437.525
BEESAT 2 02 Jul 10:43:55 10:47:47 46° 60° (ENE) 10:51:35 435.950
O/OREOS (USA 219) 02 Jul 10:44:11 10:46:21 13° 61° (ENE) 10:48:32 437.305
DUCHIFAT 1 02 Jul 10:45:17 10:48:53 29° 72° (ENE) 10:52:30 145.980
YUBILEINY 02 Jul 10:45:58 10:51:43 20° 82° (E) 10:57:28 435.215
QB50P2 02 Jul 10:49:08 10:53:03 39° 74° (ENE) 10:56:59 145.880/145.840
M-CUBED/EXP-1 PRIME 02 Jul 10:49:56 10:52:07 14° 295° (WNW) 10:54:21 437.505
POLYITAN 1 02 Jul 10:51:46 10:55:41 40° 74° (ENE) 10:59:38 437.675
PCSat 02 Jul 10:52:29 10:57:55 79° 247° (WSW) 11:03:19 145.827
TIGRISAT 02 Jul 11:04:02 11:07:13 20° 265° (W) 11:10:27 435.000
Cosmos 2491 02 Jul 11:05:39 11:14:14 60° 81° (E) 11:22:48 435.465 / 435.565
UNISAT 6 02 Jul 11:11:18 11:13:55 16° 266° (W) 11:16:35 437.425
BUGSAT 1 02 Jul 11:23:03 11:26:41 34° 73° (ENE) 11:30:19 437.445
AISAT 02 Jul 11:29:44 11:33:31 28° 98° (E) 11:37:16 437.250
PHONESAT 2.4 02 Jul 11:34:22 11:35:27 11° 220° (SW) 11:36:32 2401.200-2431.200
DX 1 02 Jul 11:34:36 11:37:58 22° 97° (E) 11:41:20 434.975-435.025
BEESAT 3 02 Jul 11:35:51 11:38:39 19° 250° (WSW) 11:41:26 437.485
50 SAT 02 Jul 11:36:52 11:40:14 33° 98° (E) 11:43:31 437.505
JAS-2 02 Jul 11:37:47 11:44:45 41° 71° (ENE) 11:51:09 435.910
ESTCUBE 1 02 Jul 11:43:06 11:47:34 69° 101° (E) 11:52:00 437.505/2401.250
Oscar 19 02 Jul 11:49:14 11:50:50 11° 64° (ENE) 11:52:26 437.125/150
NANOSAT C BR1 02 Jul 12:02:34 12:06:04 26° 263° (W) 12:09:35 145.865
AIST 2 02 Jul 12:03:10 12:05:57 17° 53° (NE) 12:08:44 435.215
CUBEBUG 1 02 Jul 12:04:27 12:08:47 81° 103° (ESE) 12:13:07 437.445
QB50P1 02 Jul 12:08:30 12:11:41 21° 264° (W) 12:14:54 145.935-145.965
POPSAT HIP 1 02 Jul 12:12:19 12:15:22 19° 264° (W) 12:18:25 437.405
O/OREOS (USA 219) 02 Jul 12:21:40 12:25:57 45° 255° (WSW) 12:30:15 437.305
DUCHIFAT 1 02 Jul 12:21:53 12:24:34 17° 265° (W) 12:27:15 145.980
VELOX 1 02 Jul 12:24:12 12:28:34 65° 284° (WNW) 12:32:55 145.980
BEESAT 2 02 Jul 12:24:52 12:25:07 10° 253° (WSW) 12:25:23 435.950
QB50P2 02 Jul 12:27:16 12:28:59 12° 267° (W) 12:30:41 145.880/145.840
POLYITAN 1 02 Jul 12:30:03 12:31:37 12° 267° (W) 12:33:12 437.675
SPROUT 02 Jul 12:34:30 12:38:47 68° 101° (ESE) 12:43:03 437.525
YUBILEINY 02 Jul 12:38:55 12:47:34 69° 278° (W) 12:56:18 435.215
Gurwin Techsat 1B 02 Jul 12:39:35 12:42:49 17° 66° (ENE) 12:46:04 435.225
UKube-1 02 Jul 12:41:34 12:45:51 68° 285° (WNW) 12:50:07 .
JUGNU 02 Jul 12:49:15 12:53:24 20° 169° (S) 12:57:35 437.505
RS-15 02 Jul 12:50:43 13:00:24 30° 316° (NW) 13:10:35 29.354- 29.394
SO-50 02 Jul 12:54:44 12:56:15 11° 106° (ESE) 12:57:45 436.795
Cosmos 2504 02 Jul 12:55:54 13:03:34 49° 89° (E) 13:11:45 435.465 / 435.565
BUGSAT 1 02 Jul 13:00:19 13:02:08 13° 266° (W) 13:03:56 437.445
Cosmos 2491 02 Jul 13:03:55 13:10:19 24° 277° (W) 13:16:45 435.465 / 435.565
AISAT 02 Jul 13:06:34 13:09:46 20° 290° (WNW) 13:12:59 437.250
DX 1 02 Jul 13:10:33 13:14:02 24° 289° (WNW) 13:17:32 434.975-435.025
50 SAT 02 Jul 13:12:25 13:13:32 11° 291° (WNW) 13:14:38 437.505
ISS 02 Jul 13:17:25 13:19:49 19° 36° (NE) 13:22:12 145.825
JAS-2 02 Jul 13:22:55 13:29:38 33° 262° (W) 13:35:54 435.910
Oscar 19 02 Jul 13:24:24 13:29:31 69° 258° (WSW) 13:34:38 437.125/150
AO-7 02 Jul 13:28:10 13:32:07 14° 54° (NE) 13:36:04 29.400- 29.500
TISAT 1 02 Jul 13:38:27 13:42:41 90° 113° (ESE) 13:46:55 437.305
AIST 2 02 Jul 13:40:44 13:44:30 34° 247° (WSW) 13:48:15 435.215
ITAMSAT 1 02 Jul 13:57:14 14:01:50 33° 70° (ENE) 14:06:28 435.822/435.867
SRMSAT 02 Jul 14:13:07 14:16:24 15° 165° (SSE) 14:19:41 437.500
Gurwin Techsat 1B 02 Jul 14:17:10 14:22:18 50° 260° (W) 14:27:28 435.225
SO-50 02 Jul 14:31:18 14:36:09 64° 300° (WNW) 14:41:01 436.795
SWISSCUBE 02 Jul 14:36:41 14:41:28 71° 102° (ESE) 14:46:12 437.505
JUGNU 02 Jul 14:37:03 14:41:51 25° 179° (S) 14:46:41 437.505
Cosmos 2504 02 Jul 14:50:15 14:57:08 30° 286° (WNW) 15:04:27 435.465 / 435.565
ISS 02 Jul 14:53:21 14:56:18 31° 230° (SW) 14:59:13 145.825
BEESAT 02 Jul 15:01:27 15:06:13 68° 285° (WNW) 15:10:57 436.000
MOZHAYETS 4 02 Jul 15:03:53 15:04:33 10° 92° (E) 15:05:12
ITUPSAT 1 02 Jul 15:05:34 15:10:18 63° 286° (WNW) 15:15:01 437.325
AO-7 02 Jul 15:15:15 15:23:33 80° 72° (ENE) 15:31:56 29.400- 29.500
RS-15 02 Jul 15:17:27 15:18:58 10° 350° (N) 15:20:28 29.354- 29.394
AIST 1 02 Jul 15:27:13 15:30:13 19° 89° (E) 15:33:14
ITAMSAT 1 02 Jul 15:37:10 15:41:16 23° 264° (W) 15:45:24 435.822/435.867
SRMSAT 02 Jul 16:00:18 16:04:59 24° 174° (S) 16:09:38 437.500
KKS-1 02 Jul 16:13:51 16:18:18 83° 102° (ESE) 16:22:47 437.445
JUGNU 02 Jul 16:25:53 16:30:20 22° 189° (S) 16:34:47 437.505
HORYU 2 02 Jul 16:32:06 16:36:30 74° 75° (ENE) 16:40:56 437.375
STARS 02 Jul 16:33:28 16:37:51 66° 101° (ESE) 16:42:14 437.465
MOZHAYETS 4 02 Jul 16:37:27 16:41:59 56° 285° (WNW) 16:46:28
Cubesat XI-IV 02 Jul 16:40:50 16:42:46 12° 64° (ENE) 16:44:42 437.490
CUBESAT XI-V 02 Jul 16:42:06 16:44:37 14° 94° (E) 16:47:06 437.345
GONETS M04 02 Jul 16:43:04 16:50:02 28° 85° (E) 16:56:59
LilacSat-2 02 Jul 16:58:49 16:59:37 11° 68° (ENE) 17:00:24 437.200
AIST 1 02 Jul 17:04:01 17:07:36 25° 282° (WNW) 17:11:09
BRITE-PL 02 Jul 17:06:13 17:10:28 29° 73° (ENE) 17:14:26 437.365/2234.400
NOAA 18 02 Jul 17:09:46 17:14:20 28° 68° (ENE) 17:18:56 137.9125
CUTE-I 02 Jul 17:10:58 17:15:17 25° 69° (ENE) 17:19:36 437.470
AO-7 02 Jul 17:12:00 17:16:57 17° 266° (W) 17:21:56 29.400- 29.500
GOMX 1 02 Jul 17:18:03 17:20:28 15° 70° (ENE) 17:22:51 467.674
Cosmos 2499 02 Jul 17:19:12 17:26:21 33° 85° (E) 17:33:49 435.465 / 435.565
NOAA 15 02 Jul 17:23:07 17:28:11 48° 73° (ENE) 17:33:14 137.62
CUSAT 1 02 Jul 17:26:04 17:28:16 19° 74° (ENE) 17:30:16 437.405
RS-15 02 Jul 17:32:35 17:39:40 16° 29° (NNE) 17:46:43 29.354- 29.394
SRMSAT 02 Jul 17:48:52 17:53:37 24° 184° (S) 17:58:20 437.500
DOVE 4 02 Jul 17:54:47 17:57:15 15° 70° (ENE) 17:59:40 437.250
JUGNU 02 Jul 18:16:35 18:18:43 12° 198° (SSW) 18:20:51 437.505
Cubesat XI-IV 02 Jul 18:16:50 18:22:09 71° 258° (WSW) 18:27:31 437.490
CUBESAT XI-V 02 Jul 18:17:48 18:22:06 40° 286° (WNW) 18:26:23 437.345
AO-85 02 Jul 18:25:49 18:27:40 12° 106° (ESE) 18:29:31 145.980
LilacSat-2 02 Jul 18:29:58 18:33:30 38° 262° (W) 18:37:04 437.200
DANDE 02 Jul 18:31:25 18:35:18 60° 79° (E) 18:38:19 436.750
GONETS M04 02 Jul 18:37:57 18:46:18 51° 280° (W) 18:54:43
BRITE-PL 02 Jul 18:44:55 18:48:51 23° 263° (W) 18:52:34 437.365/2234.400
NOAA 18 02 Jul 18:50:05 18:54:50 30° 262° (W) 18:59:37 137.9125
CUTE-I 02 Jul 18:50:23 18:55:07 32° 262° (W) 18:59:54 437.470
GOMX 1 02 Jul 18:54:00 18:58:17 38° 261° (W) 19:02:21 467.674
NOAA 15 02 Jul 19:04:54 19:08:07 16° 266° (W) 19:11:20 137.62
COMPASS 1 02 Jul 19:10:43 19:12:31 13° 68° (ENE) 19:14:20 437.405
Cosmos 2499 02 Jul 19:11:14 19:19:04 45° 282° (WNW) 19:27:24 435.465 / 435.565
CUBEBUG 2 02 Jul 19:20:43 19:20:56 10° 66° (ENE) 19:21:10 437.445
HO-68 02 Jul 19:20:59 19:27:56 57° 71° (ENE) 19:34:55 435.675
CANX-2 02 Jul 19:24:53 19:29:00 48° 75° (ENE) 19:33:08 2200.000
DOVE 4 02 Jul 19:30:49 19:34:41 32° 262° (W) 19:38:27 437.250
SRMSAT 02 Jul 19:38:32 19:42:11 17° 194° (SSW) 19:45:49 437.500
SEEDS 02 Jul 19:39:18 19:43:18 42° 74° (ENE) 19:47:20 437.485
RS-15 02 Jul 19:43:36 19:55:44 57° 56° (ENE) 20:07:37 29.354- 29.394
CUTE 1.7 + AOD 2 02 Jul 19:43:47 19:48:02 72° 77° (ENE) 19:52:19 437.475
CINEMA 3 02 Jul 19:51:19 19:55:26 78° 259° (W) 19:59:36 145.822/145.860
STRAND 1 02 Jul 19:54:08 19:59:16 74° 284° (WNW) 20:04:22 437.568
UWE-3 02 Jul 19:55:07 19:58:03 19° 69° (ENE) 20:01:02 435.000/436.395/437.385
M-CUBED/EXP-1 PRIME 02 Jul 19:57:50 20:00:05 18° 67° (ENE) 20:02:20 437.505
AO-85 02 Jul 20:02:09 20:07:35 74° 298° (WNW) 20:12:55 145.980
AAUSAT CUBESAT 2 02 Jul 20:04:44 20:08:44 46° 75° (ENE) 20:12:46 437.432
COMPASS 1 02 Jul 20:43:40 20:47:39 41° 261° (W) 20:51:40 437.405
AUBIESAT-1 02 Jul 20:47:29 20:50:46 81° 70° (ENE) 20:54:05 437.475
PRISM 02 Jul 20:49:18 20:53:20 63° 101° (E) 20:57:21 437.425
CUBEBUG 2 02 Jul 20:52:59 20:57:02 51° 261° (W) 21:01:11 437.445
ZACube-1 02 Jul 20:57:55 21:02:05 71° 78° (ENE) 21:06:24 437.345
Oscar 11 02 Jul 20:58:16 21:02:36 79° 76° (ENE) 21:06:57 145.826/435.025
CANX-2 02 Jul 21:04:11 21:05:03 10° 268° (W) 21:05:54 2200.000
HO-68 02 Jul 21:10:41 21:15:54 22° 265° (W) 21:21:11 435.675
DELFI C3 02 Jul 21:11:32 21:15:22 44° 75° (ENE) 21:19:13 145.870
FUNcube-1 02 Jul 21:12:46 21:16:57 80° 258° (WSW) 21:21:16 145.935
SEEDS 02 Jul 21:17:34 21:19:09 12° 267° (W) 21:20:43 437.485
HUMSAT D 02 Jul 21:29:21 21:33:04 32° 73° (ENE) 21:36:50 437.325/437.525
UWE-3 02 Jul 21:30:43 21:34:16 27° 263° (W) 21:37:55 435.000/436.395/437.385
UNISAT 6 02 Jul 21:31:50 21:33:17 11° 93° (E) 21:34:43 437.425
M-CUBED/EXP-1 PRIME 02 Jul 21:32:33 21:34:34 15° 260° (W) 21:36:35 437.505
AAUSAT CUBESAT 2 02 Jul 21:43:37 21:44:24 10° 267° (W) 21:45:11 437.432
